Seattle, WA

10:55 PM PDT on August 25, 2016 (GMT -0700)
Boeing Field-King County International

Weather History for KBFI - March, 2013

Change the Weather History Date:

Sunday, March 10, 2013

  Actual Average Record
Temperature  
Mean Temperature 44 °F -  
Max Temperature 48 °F 53 °F 68 °F (1979)
Min Temperature 39 °F 39 °F 20 °F (1956)
Degree Days  
Heating Degree Days 22    
Moisture  
Dew Point 38 °F    
Average Humidity 77    
Maximum Humidity 83    
Minimum Humidity 71    
Precipitation  
Precipitation 0.01 in - - ()
Sea Level Pressure  
Sea Level Pressure 30.46 in    
Wind  
Wind Speed 5 mph (SE)    
Max Wind Speed 9 mph    
Max Gust Speed -    
Visibility 10 miles    
Events Rain    
Averages and records for this station are not official NWS values.
T = Trace of Precipitation, MM = Missing Value Source: NWS Daily Summary

Daily Weather History Graph

Daily Weather History Graph

Search for Another Location

Airport or City:

Trip Planner

Search our weather history database for the weather conditions in past years. The results will help you decide how hot, cold, wet, or windy it might be!

Date:

Astronomy

Mar. 10, 2013 Rise Set
Actual Time 7:31 AM PDT 7:08 PM PDT
Civil Twilight 7:00 AM PDT 7:38 PM PDT
Nautical Twilight 6:25 AM PDT 8:14 PM PDT
Astronomical Twilight 5:49 AM PDT 8:50 PM PDT
Moon 6:36 AM PDT (3/10) 6:21 PM PDT (3/10)
Length of Visible Light 12h 37m
Length of Day
11h 36m
Waning Crescent, 1% of the Moon is Illuminated
Mar 10
Waning Crescent
Mar 11
New
Mar 19
First Quarter
Mar 27
Full
Apr 2
Last Quarter

Hourly Weather History & Observations

Time (PDT) Temp. Windchill Dew Point Humidity Pressure Visibility Wind Dir Wind Speed Gust Speed Precip Events Conditions
12:53 AM 39.9 °F 35.8 °F 33.1 °F 77% 30.50 in 10.0 mi SE 5.8 mph - N/A   Clear
1:53 AM 39.0 °F 34.0 °F 33.1 °F 79% 30.50 in 10.0 mi SE 6.9 mph - N/A   Clear
3:53 AM 39.0 °F 34.0 °F 33.1 °F 79% 30.50 in 10.0 mi SE 6.9 mph - N/A   Scattered Clouds
5:53 AM 41.0 °F 39.0 °F 34.0 °F 76% 30.50 in 10.0 mi ESE 3.5 mph - N/A   Overcast
6:53 AM 41.0 °F 39.0 °F 35.1 °F 79% 30.50 in 10.0 mi SSE 3.5 mph - N/A   Overcast
7:53 AM 39.9 °F 34.5 °F 35.1 °F 83% 30.48 in 10.0 mi SE 8.1 mph - N/A   Overcast
8:53 AM 41.0 °F 35.2 °F 34.0 °F 76% 30.48 in 10.0 mi SE 9.2 mph - N/A   Overcast
9:53 AM 43.0 °F 38.2 °F 35.1 °F 74% 30.48 in 10.0 mi SE 8.1 mph - N/A   Overcast
10:53 AM 45.0 °F 41.8 °F 36.0 °F 71% 30.48 in 10.0 mi ESE 5.8 mph - N/A   Overcast
11:53 AM 46.0 °F 43.9 °F 39.0 °F 76% 30.48 in 10.0 mi ESE 4.6 mph - 0.00 in Rain Light Rain
12:53 PM 46.9 °F - 39.0 °F 74% 30.47 in 10.0 mi ESE 3.5 mph - 0.00 in   Overcast
1:53 PM 48.0 °F - 39.9 °F 74% 30.46 in 10.0 mi SE 3.5 mph - N/A   Overcast
2:53 PM 48.0 °F - 39.9 °F 74% 30.45 in 10.0 mi East 5.8 mph - N/A   Overcast
3:53 PM 48.0 °F - 39.9 °F 74% 30.45 in 10.0 mi SSE 8.1 mph - 0.00 in Rain Light Rain
4:53 PM 48.0 °F - 39.9 °F 74% 30.44 in 10.0 mi SSE 5.8 mph - 0.00 in   Overcast
5:49 PM 46.4 °F 44.3 °F 39.2 °F 76% 30.44 in 10.0 mi South 4.6 mph - N/A   Overcast
5:53 PM 46.9 °F - 39.0 °F 74% 30.44 in 10.0 mi Variable 3.5 mph - N/A   Overcast
6:53 PM 46.9 °F - 37.9 °F 71% 30.44 in 10.0 mi Calm Calm - N/A   Overcast
7:53 PM 46.0 °F - 39.0 °F 76% 30.45 in 10.0 mi Calm Calm - 0.01 in   Overcast
8:53 PM 46.0 °F - 39.9 °F 79% 30.45 in 10.0 mi Calm Calm - N/A   Overcast
9:53 PM 46.0 °F - 39.9 °F 79% 30.44 in 10.0 mi Calm Calm - N/A   Overcast
10:53 PM 46.9 °F - 41.0 °F 80% 30.44 in 10.0 mi Calm Calm - N/A   Overcast
11:53 PM 46.0 °F - 41.0 °F 83% 30.44 in 9.0 mi Calm Calm - N/A   Overcast
12:53 AM 46.0 °F - 41.0 °F 83% 30.44 in 9.0 mi Calm Calm - N/A   Overcast